Weather History for Iron Mountain, MI

Change the Weather History Date:

Tuesday, January 7, 2014

  Actual Average Record
Temperature  
Mean Temperature -11 °F -  
Max Temperature -2 °F 21 °F 45 °F (1949)
Min Temperature -20 °F 1 °F -29 °F (1986)
Degree Days  
Heating Degree Days 76    
Moisture  
Dew Point -21 °F    
Average Humidity 64    
Maximum Humidity 71    
Minimum Humidity 51    
Precipitation  
Precipitation 0.00 in - - ()
Sea Level Pressure  
Sea Level Pressure 30.06 in    
Wind  
Wind Speed 7 mph (West)    
Max Wind Speed 10 mph    
Max Gust Speed 17 mph    
Visibility 10 miles    
Events      
Averages and records for this station are not official NWS values.
T = Trace of Precipitation, MM = Missing Value Source: NWS Daily Summary

Daily Weather History Graph

Daily Weather History Graph

Search for Another Location

Airport:

Trip Planner

Search our weather history database for the weather conditions in past years. The results will help you decide how hot, cold, wet, or windy it might be!

Date:

Astronomy

Jan. 07, 2014 Rise Set
Actual Time 7:33 AM CST 4:24 PM CST
Civil Twilight 6:59 AM CST 4:58 PM CST
Nautical Twilight 6:21 AM CST 5:36 PM CST
Astronomical Twilight 5:45 AM CST 6:12 PM CST
Moon 10:58 AM CST (1/7) No Moon Set
Length of Visible Light 9h 59m
Length of Day
8h 51m
Waxing Crescent, 46% of the Moon is Illuminated
Jan 7
Waxing Crescent
Jan 7
First Quarter
Jan 15
Full
Jan 23
Last Quarter
Jan 30
New

Hourly Weather History & Observations

Time (CST) Temp. Windchill Dew Point Humidity Pressure Visibility Wind Dir Wind Speed Gust Speed Precip Events Conditions
12:54 AM -18.0 °F -37.5 °F -27.0 °F 64% 29.98 in 10.0 mi West 9.2 mph - N/A   Clear
1:54 AM -18.9 °F -34.0 °F -27.0 °F 66% 29.99 in 10.0 mi West 5.8 mph - N/A   Clear
2:54 AM -18.9 °F -37.2 °F -27.9 °F 63% 29.99 in 10.0 mi West 8.1 mph - N/A   Clear
3:54 AM -18.9 °F -34.0 °F -27.0 °F 66% 30.00 in 10.0 mi West 5.8 mph - N/A   Mostly Cloudy
4:54 AM -18.0 °F -34.7 °F -27.0 °F 64% 30.00 in 10.0 mi West 6.9 mph 17.3 mph N/A   Overcast
5:54 AM -18.9 °F -35.8 °F -27.0 °F 66% 30.00 in 10.0 mi West 6.9 mph - N/A   Clear
6:54 AM -20.0 °F -30.7 °F -27.0 °F 70% 30.00 in 10.0 mi West 3.5 mph - N/A   Clear
7:17 AM -20.2 °F - -27.4 °F 69% 29.87 in 10.0 mi Calm Calm - N/A   Mostly Cloudy
7:54 AM -18.9 °F -34.0 °F -26.0 °F 70% 30.01 in 10.0 mi WSW 5.8 mph - N/A   Overcast
8:39 AM -18.4 °F -35.1 °F -25.6 °F 70% 29.90 in 10.0 mi West 6.9 mph - N/A   Scattered Clouds
8:54 AM -18.0 °F -36.1 °F -26.0 °F 67% 30.05 in 10.0 mi West 8.1 mph - N/A   Mostly Cloudy
9:54 AM -15.0 °F -34.8 °F -25.1 °F 61% 30.06 in 10.0 mi West 10.4 mph 16.1 mph N/A   Overcast
10:54 AM -13.0 °F -31.3 °F -23.1 °F 61% 30.06 in 10.0 mi West 9.2 mph - N/A   Mostly Cloudy
11:33 AM -9.4 °F -26.8 °F -20.2 °F 59% 29.92 in 10.0 mi West 9.2 mph 17.3 mph N/A   Scattered Clouds
11:54 AM -9.0 °F -26.4 °F -20.0 °F 59% 30.05 in 10.0 mi West 9.2 mph - N/A   Clear
12:54 PM -6.0 °F -20.1 °F -18.0 °F 56% 30.04 in 10.0 mi West 6.9 mph - 0.00 in   Clear
1:54 PM -4.0 °F -20.2 °F -17.0 °F 54% 30.06 in 10.0 mi WNW 9.2 mph - N/A   Clear
2:54 PM -2.0 °F -16.6 °F -16.1 °F 51% 30.07 in 10.0 mi WNW 8.1 mph - N/A   Clear
3:54 PM -2.0 °F -15.4 °F -16.1 °F 51% 30.11 in 10.0 mi WNW 6.9 mph - N/A   Clear
4:54 PM -4.0 °F -14.6 °F -16.1 °F 56% 30.13 in 10.0 mi West 4.6 mph - N/A   Clear
5:54 PM -6.0 °F -14.7 °F -16.1 °F 62% 30.16 in 10.0 mi West 3.5 mph - N/A   Clear
6:54 PM -7.1 °F -15.9 °F -16.1 °F 65% 30.18 in 10.0 mi West 3.5 mph - N/A   Clear
7:54 PM -11.9 °F - -18.9 °F 71% 30.20 in 10.0 mi Calm Calm - N/A   Clear
8:54 PM -9.0 °F -22.3 °F -16.1 °F 71% 30.20 in 10.0 mi West 5.8 mph - N/A   Clear
9:54 PM -9.0 °F -23.8 °F -17.0 °F 68% 30.21 in 10.0 mi WNW 6.9 mph - N/A   Clear
10:26 PM -7.6 °F -25.7 °F -16.6 °F 65% 30.09 in 10.0 mi WNW 10.4 mph - N/A   Mostly Cloudy
10:54 PM -7.1 °F -25.0 °F -15.0 °F 68% 30.21 in 10.0 mi WNW 10.4 mph - N/A   Overcast
11:20 PM -7.6 °F -24.6 °F -14.8 °F 71% 30.09 in 10.0 mi WNW 9.2 mph - N/A   Overcast
11:54 PM -7.1 °F -22.8 °F -15.0 °F 68% 30.21 in 10.0 mi West 8.1 mph - N/A   Overcast